[[{"header":{"parameterUnit":"m.s-1","parameterCategory":1,"la1":30.2991,"la2":30.254,"lo1":-89.0895,"lo2":-89.0444,"dy":0.0017,"dx":0.0017,"nx":28,"ny":28,"refTime":"2024-03-27T09:00:00:Z","depth":0,"parameterNumber":2,"parameterNumberName":"U-component_of_WINDS"},"data":[0,0,0,0,0,0,0,0,0,0,0,0,0,0,0,0,0,0,0,0,0,0,0,0,0,0,0,0,0,0,0,0,0,0,0,0,0,0,0,0,0,0,0,0,0,0,0,0,0,0,0,0,0,0,0,0,0,0,-0.3582,-0.3582,0,-0.361,-0.361,-0.361,-0.3583,-0.3582,-0.3581,-0.358,-0.3609,-0.3611,-0.3612,0,0,0,0,0,0,0,0,0,0,0,0,0,-0.3507,-0.3508,-0.3582,-0.3582,-0.3583,-0.361,-0.361,-0.361,-0.3583,-0.3582,-0.358,-0.3579,-0.3608,-0.361,-0.3613,0,0,0,0,0,0,0,0,0,0,0,0,0,-0.3537,-0.3509,-0.3582,-0.3572,-0.3572,-0.3609,-0.361,-0.361,-0.3583,-0.3582,-0.358,-0.3579,-0.3608,-0.361,-0.3613,-0.3662,0,0,-0.3621,-0.3622,0,0,0,0,0,0,0,0,-0.3536,-0.354,-0.3573,-0.3573,-0.3572,-0.3591,-0.3594,-0.3628,-0.3584,-0.3579,-0.358,-0.3578,-0.3604,-0.3607,-0.3616,-0.3663,-0.3664,-0.3621,-0.3623,-0.3624,-0.3625,0,0,0,0,0,0,0,-0.3534,-0.3539,-0.3593,-0.3574,-0.3573,-0.3567,-0.3569,-0.36,-0.36,-0.3579,-0.3577,-0.3581,-0.3604,-0.3613,-0.3616,-0.3665,-0.3621,-0.3624,-0.3625,-0.3626,-0.3754,-0.3756,0,0,0,0,0,0,-0.3532,-0.3537,-0.3592,-0.3594,-0.355,-0.357,-0.3572,-0.3587,-0.36,-0.36,-0.3582,-0.358,-0.361,-0.3613,-0.3617,-0.3676,-0.3624,-0.3627,-0.3628,-0.3752,-0.3754,-0.3756,0,0,0,0,0,0,-0.3531,-0.3538,-0.3591,-0.3565,-0.3571,-0.3573,-0.3589,-0.3588,-0.3598,-0.3602,-0.3602,-0.3592,-0.3609,-0.3614,-0.3651,-0.3677,-0.3628,-0.363,-0.375,-0.3753,-0.3755,-0.3794,0,0,0,0,0,0,-0.3529,-0.3537,-0.3556,-0.3566,-0.3573,-0.3624,-0.359,-0.359,-0.3602,-0.3599,-0.3611,-0.3612,-0.3608,-0.3647,-0.3654,-0.368,-0.3632,-0.3748,-0.3751,-0.3754,-0.3791,-0.3798,-0.3804,0,0,0,0,0,-0.3526,-0.3566,-0.3557,-0.3564,-0.3596,-0.3626,-0.363,-0.3624,-0.3605,-0.3623,-0.3626,-0.3612,-0.3673,-0.3651,-0.3658,-0.3686,-0.3746,-0.375,-0.3754,-0.3788,-0.3797,-0.3804,0,0,0,0,0,0,-0.3559,-0.3567,-0.3557,-0.3601,-0.3613,-0.3621,-0.3645,-0.3633,-0.3651,-0.3647,-0.3639,-0.3642,-0.3682,-0.3687,-0.3663,-0.3734,-0.3706,-0.3712,-0.3729,-0.3738,-0.3744,-0.3743,-0.3635,0,0,0,0,0,-0.3572,-0.3595,-0.36,-0.3638,-0.3645,-0.3644,-0.3656,-0.365,-0.3663,-0.3668,-0.3673,-0.3686,-0.3708,-0.3723,-0.3743,-0.3791,-0.3793,-0.3813,-0.3819,-0.3825,-0.3831,-0.3857,-0.3866,-0.377,-0.3769,-0.3769,0,0,-0.3598,-0.3604,-0.362,-0.3645,-0.3654,-0.3678,-0.3648,-0.3675,-0.3694,-0.3672,-0.3708,-0.3712,-0.3726,-0.3769,-0.3788,-0.3774,-0.3857,-0.383,-0.3834,-0.3837,-0.3862,-0.3871,-0.3879,-0.3772,-0.3772,-0.3771,0,0,-0.3658,-0.3665,-0.3698,-0.3707,-0.372,-0.3719,-0.3727,-0.3736,-0.3739,-0.3774,-0.3758,-0.378,-0.3818,-0.3828,-0.3839,-0.3902,-0.389,-0.3909,-0.3945,-0.397,-0.3978,-0.3985,-0.4008,-0.4017,-0.3914,-0.3914,-0.3914,0,-0.3689,-0.3725,-0.3716,-0.3745,-0.3757,-0.3737,-0.3771,-0.378,-0.3799,-0.3808,-0.3792,-0.384,-0.3847,-0.3893,-0.3908,-0.3916,-0.3926,-0.3908,-0.3977,-0.3984,-0.399,-0.4013,-0.4022,-0.3916,-0.3916,-0.3916,-0.3916,0,-0.3763,-0.3788,-0.3813,-0.3832,-0.3847,-0.3878,-0.3874,-0.3889,-0.3882,-0.3883,-0.3919,-0.3927,-0.395,-0.3959,-0.3952,-0.4004,-0.3995,-0.3978,-0.3951,-0.4002,-0.4023,-0.4032,-0.392,-0.3919,-0.3918,-0.3918,0,0,-0.3846,-0.3859,-0.3869,-0.3877,-0.389,-0.391,-0.394,-0.3961,-0.3975,-0.3988,-0.4014,-0.4046,-0.4031,-0.4042,-0.4036,-0.4058,-0.4109,-0.4039,-0.4039,-0.4053,-0.4168,-0.4182,-0.4192,-0.41,-0.4102,-0.4103,-0.4167,0,-0.3908,-0.396,-0.3953,-0.4003,-0.4027,-0.4008,-0.4034,-0.4045,-0.4046,-0.4067,-0.4067,-0.4091,-0.4068,-0.4075,-0.4096,-0.4099,-0.4132,-0.4094,-0.4125,-0.4126,-0.4124,-0.4203,-0.4217,-0.4277,-0.4175,-0.4176,-0.4177,0,-0.3987,-0.4004,-0.4057,-0.4066,-0.4075,-0.4099,-0.4118,-0.4137,-0.4149,-0.4148,-0.4161,-0.4151,-0.4181,-0.4151,-0.4193,-0.4167,-0.4179,-0.4182,-0.4184,-0.4189,-0.4156,-0.4211,-0.4296,-0.4306,-0.419,-0.4189,-0.4188,0,-0.4045,-0.408,-0.4116,-0.4124,-0.4135,-0.4152,-0.4158,-0.4168,-0.4181,-0.4197,-0.4206,-0.4225,-0.4237,-0.4252,-0.4247,-0.4226,-0.4291,-0.4261,-0.4292,-0.4292,-0.4308,-0.4308,-0.4399,-0.4313,-0.4313,-0.4312,-0.4312,0,-0.4116,-0.415,-0.4142,-0.4165,-0.4202,-0.4193,-0.4229,-0.4232,-0.4241,-0.4264,-0.4249,-0.4271,-0.4262,-0.4284,-0.428,-0.4316,-0.432,-0.4321,-0.432,-0.4324,-0.4324,-0.4333,-0.433,-0.4315,-0.4314,-0.4314,-0.4313,0,-0.4188,-0.4184,-0.4223,-0.423,-0.4232,-0.4259,-0.4265,-0.4287,-0.4286,-0.4315,-0.4321,-0.432,-0.4345,-0.4341,-0.4368,-0.4365,-0.4411,-0.4404,-0.4407,-0.4406,-0.4438,-0.4436,-0.454,-0.4554,-0.4457,-0.4458,-0.4459,0,-0.4234,-0.4259,-0.4269,-0.4283,-0.429,-0.4313,-0.4326,-0.4317,-0.4332,-0.4347,-0.4367,-0.4389,-0.4407,-0.4447,-0.4449,-0.447,-0.4464,-0.4499,-0.4467,-0.447,-0.4467,-0.4466,-0.4469,-0.4506,-0.4507,-0.4508,-0.4509,0,-0.4318,-0.4314,-0.4334,-0.4353,-0.437,-0.4384,-0.4397,-0.441,-0.4402,-0.4419,-0.4444,-0.4458,-0.4485,-0.4509,-0.4528,-0.4533,-0.4521,-0.4518,-0.4527,-0.4532,-0.4534,-0.4535,-0.4426,-0.4517,-0.4516,-0.4515,-0.4515,-0.4515,-0.4379,-0.4401,-0.4411,-0.4434,-0.4442,-0.4455,-0.4476,-0.4477,-0.4497,-0.4519,-0.4512,-0.4541,-0.4551,-0.4576,-0.4583,-0.4605,-0.4592,-0.4605,-0.4608,-0.4612,-0.4616,-0.4528,-0.4608,-0.4608,-0.4608,-0.4608,-0.4608,0,-0.4463,-0.4469,-0.4489,-0.4508,-0.4526,-0.4511,-0.4524,-0.454,-0.4565,-0.4576,-0.4594,-0.4622,-0.4645,-0.4648,-0.4669,-0.4686,-0.4681,-0.4692,-0.4692,-0.4693,-0.4626,-0.4617,-0.4696,-0.4696,-0.4696,-0.4696,-0.4696,-0.4696,-0.4509,-0.4546,-0.4544,-0.4584,-0.4589,-0.4617,-0.4626,-0.4638,-0.4646,-0.4679,-0.4697,-0.4698,-0.4706,-0.4728,-0.4747,-0.4748,-0.4757,-0.4771,-0.4769,-0.4707,-0.4698,-0.469,-0.4682,-0.4773,-0.4773,-0.4835,-0.4836,-0.4836]},{"header":{"parameterUnit":"m.s-1","parameterCategory":1,"la1":30.2991,"la2":30.254,"lo1":-89.0895,"lo2":-89.0444,"dy":0.0017,"dx":0.0017,"nx":28,"ny":28,"refTime":"2024-03-27T09:00:00:Z","depth":0,"parameterNumber":3,"parameterNumberName":"V-component_of_WINDS"},"data":[0,0,0,0,0,0,0,0,0,0,0,0,0,0,0,0,0,0,0,0,0,0,0,0,0,0,0,0,0,0,0,0,0,0,0,0,0,0,0,0,0,0,0,0,0,0,0,0,0,0,0,0,0,0,0,0,0,0,-2.7392,-2.7393,0,-2.7507,-2.7508,-2.7509,-2.7494,-2.7492,-2.749,-2.7489,-2.7603,-2.7608,-2.7613,0,0,0,0,0,0,0,0,0,0,0,0,0,-2.7157,-2.7161,-2.7392,-2.7393,-2.7395,-2.7507,-2.7508,-2.751,-2.7495,-2.7492,-2.749,-2.7488,-2.7602,-2.7608,-2.7613,0,0,0,0,0,0,0,0,0,0,0,0,0,-2.7264,-2.7163,-2.7391,-2.7401,-2.7403,-2.7506,-2.7508,-2.751,-2.7495,-2.7492,-2.7489,-2.7487,-2.76,-2.7607,-2.7614,-2.7715,0,0,-2.7636,-2.7639,0,0,0,0,0,0,0,0,-2.7258,-2.7273,-2.7398,-2.74,-2.7403,-2.7483,-2.7467,-2.7579,-2.7496,-2.746,-2.7489,-2.7485,-2.7566,-2.7575,-2.7603,-2.772,-2.7725,-2.7637,-2.7641,-2.7644,-2.7646,0,0,0,0,0,0,0,-2.7251,-2.7268,-2.7437,-2.74,-2.7403,-2.7398,-2.741,-2.7488,-2.7527,-2.7463,-2.7462,-2.7476,-2.7566,-2.7596,-2.7606,-2.7727,-2.7637,-2.7643,-2.7647,-2.765,-2.7934,-2.7937,0,0,0,0,0,0,-2.7241,-2.7262,-2.7433,-2.7441,-2.7322,-2.7405,-2.7418,-2.746,-2.7526,-2.7534,-2.7478,-2.7475,-2.7585,-2.7597,-2.761,-2.7733,-2.7644,-2.7651,-2.7655,-2.7931,-2.7935,-2.7938,0,0,0,0,0,0,-2.7236,-2.7257,-2.7429,-2.7351,-2.7373,-2.7412,-2.7459,-2.7464,-2.7494,-2.7538,-2.7544,-2.7502,-2.7583,-2.7599,-2.7689,-2.7737,-2.7654,-2.7661,-2.7927,-2.7932,-2.7936,-2.798,0,0,0,0,0,0,-2.723,-2.7255,-2.7294,-2.7352,-2.7377,-2.7508,-2.7462,-2.7468,-2.7507,-2.7503,-2.7562,-2.7569,-2.7583,-2.7679,-2.7697,-2.7745,-2.7666,-2.7923,-2.7929,-2.7935,-2.7975,-2.7986,-2.7996,0,0,0,0,0,-2.7221,-2.7301,-2.7296,-2.7317,-2.7427,-2.751,-2.7524,-2.754,-2.7511,-2.755,-2.7579,-2.7567,-2.7729,-2.7688,-2.7708,-2.776,-2.792,-2.7927,-2.7934,-2.797,-2.7984,-2.7996,0,0,0,0,0,0,-2.7246,-2.7309,-2.7304,-2.7405,-2.7453,-2.7508,-2.7558,-2.7553,-2.7609,-2.7604,-2.7619,-2.7632,-2.7724,-2.775,-2.7704,-2.7861,-2.782,-2.7832,-2.7841,-2.7854,-2.7864,-2.7856,-2.7672,0,0,0,0,0,-2.7264,-2.7327,-2.7378,-2.7462,-2.7486,-2.7518,-2.7555,-2.7563,-2.7612,-2.7632,-2.7667,-2.7715,-2.7776,-2.7816,-2.7876,-2.7979,-2.7991,-2.8024,-2.8034,-2.8043,-2.8053,-2.811,-2.8125,-2.7962,-2.7962,-2.7962,0,0,-2.73,-2.7342,-2.7381,-2.7468,-2.7506,-2.7571,-2.7535,-2.7605,-2.7653,-2.7642,-2.773,-2.7757,-2.7811,-2.7909,-2.7953,-2.7934,-2.8101,-2.8052,-2.8058,-2.8064,-2.8119,-2.8135,-2.8148,-2.7967,-2.7966,-2.7965,0,0,-2.74,-2.7438,-2.7513,-2.7552,-2.761,-2.7631,-2.7649,-2.7705,-2.7724,-2.7812,-2.7805,-2.7862,-2.7968,-2.8008,-2.8041,-2.8157,-2.8149,-2.8176,-2.8231,-2.8287,-2.8299,-2.8311,-2.8353,-2.8368,-2.8186,-2.8186,-2.8186,0,-2.7438,-2.7536,-2.7552,-2.7624,-2.7662,-2.7657,-2.7733,-2.7769,-2.7843,-2.787,-2.7847,-2.7981,-2.8017,-2.8124,-2.8153,-2.818,-2.8201,-2.817,-2.8296,-2.8308,-2.8319,-2.836,-2.8375,-2.8189,-2.8188,-2.8188,-2.8188,0,-2.758,-2.7649,-2.7702,-2.7776,-2.782,-2.7893,-2.792,-2.7963,-2.7967,-2.799,-2.8081,-2.8124,-2.8192,-2.8218,-2.8222,-2.8326,-2.8312,-2.8293,-2.8252,-2.8337,-2.8376,-2.8391,-2.8193,-2.8192,-2.8191,-2.819,0,0,-2.7699,-2.7781,-2.78,-2.7834,-2.7899,-2.7951,-2.8024,-2.8093,-2.813,-2.8181,-2.8243,-2.8333,-2.8316,-2.8355,-2.8363,-2.8412,-2.8502,-2.8387,-2.8388,-2.8407,-2.8621,-2.8635,-2.8653,-2.8497,-2.85,-2.8502,-2.8616,0,-2.7806,-2.7936,-2.7953,-2.8069,-2.8132,-2.8128,-2.8192,-2.8238,-2.8262,-2.8319,-2.8344,-2.8408,-2.8381,-2.8404,-2.8452,-2.8481,-2.8545,-2.8473,-2.8554,-2.8557,-2.8542,-2.8673,-2.8688,-2.8794,-2.8631,-2.8634,-2.8636,0,-2.7948,-2.8005,-2.8127,-2.8184,-2.8211,-2.8269,-2.8333,-2.8388,-2.844,-2.8453,-2.8497,-2.85,-2.8575,-2.8531,-2.8635,-2.8585,-2.8619,-2.8639,-2.8643,-2.8652,-2.8602,-2.8686,-2.8828,-2.8844,-2.8659,-2.8657,-2.8656,0,-2.8023,-2.813,-2.8218,-2.8247,-2.8315,-2.8355,-2.8385,-2.8435,-2.8475,-2.8531,-2.8558,-2.8621,-2.8656,-2.8704,-2.8724,-2.869,-2.8827,-2.8784,-2.8841,-2.884,-2.887,-2.8868,-2.9021,-2.8891,-2.8891,-2.889,-2.889,0,-2.8141,-2.8216,-2.8253,-2.8307,-2.8391,-2.841,-2.8492,-2.852,-2.8565,-2.8624,-2.8623,-2.8679,-2.8701,-2.8759,-2.8775,-2.8859,-2.8874,-2.8887,-2.8891,-2.8888,-2.8887,-2.8911,-2.8905,-2.8895,-2.8894,-2.8893,-2.8892,0,-2.824,-2.8267,-2.8363,-2.842,-2.8436,-2.8496,-2.8545,-2.8597,-2.862,-2.8695,-2.8713,-2.875,-2.8819,-2.8843,-2.8926,-2.8936,-2.9035,-2.9031,-2.9018,-2.9019,-2.9074,-2.9069,-2.9248,-2.9273,-2.9126,-2.9127,-2.9129,0,-2.8314,-2.8372,-2.8436,-2.8476,-2.8508,-2.8573,-2.8614,-2.8634,-2.8678,-2.8742,-2.8787,-2.8856,-2.8912,-2.9022,-2.9056,-2.912,-2.9118,-2.9177,-2.9128,-2.9124,-2.912,-2.9117,-2.9123,-2.9186,-2.9188,-2.9189,-2.919,0,-2.8442,-2.8453,-2.8514,-2.858,-2.863,-2.8683,-2.8734,-2.8766,-2.8794,-2.8842,-2.8914,-2.8958,-2.9044,-2.9112,-2.9178,-2.9208,-2.9204,-2.9205,-2.9222,-2.922,-2.921,-2.9217,-2.9044,-2.9201,-2.92,-2.9199,-2.9198,-2.9198,-2.8532,-2.8584,-2.8637,-2.8705,-2.8746,-2.8794,-2.8846,-2.8877,-2.8937,-2.901,-2.9017,-2.9095,-2.9146,-2.9234,-2.9267,-2.9327,-2.9311,-2.9335,-2.9341,-2.9347,-2.9352,-2.92,-2.9339,-2.9339,-2.9338,-2.9338,-2.9338,0,-2.8661,-2.8696,-2.8758,-2.883,-2.8884,-2.8876,-2.8932,-2.8977,-2.9046,-2.9094,-2.915,-2.9233,-2.93,-2.9339,-2.9406,-2.9446,-2.9446,-2.9463,-2.9461,-2.9468,-2.9362,-2.9341,-2.9462,-2.9462,-2.9462,-2.9462,-2.9462,-2.9462,-2.8735,-2.8823,-2.8841,-2.8949,-2.8983,-2.906,-2.9092,-2.9137,-2.9176,-2.9268,-2.9325,-2.935,-2.9395,-2.9465,-2.9526,-2.9536,-2.9561,-2.958,-2.9588,-2.9488,-2.9475,-2.9463,-2.9444,-2.9585,-2.9585,-2.969,-2.9691,-2.9691]}]]